Angleton, TX

5:46 AM CST on December 16, 2019 (GMT -0600)
Brazoria County

Weather History for KLBX - June, 2019

Change the Weather History Date:

Tuesday, June 11, 2019

  Actual Average Record
Temperature  
Mean Temperature 80 °F -  
Max Temperature 90 °F 86 °F 91 °F (2001)
Min Temperature 73 °F 71 °F 64 °F (2006)
Cooling Degree Days 16    
Growing Degree Days 30 (Base 50)    
Moisture  
Dew Point 70 °F    
Average Humidity 75    
Maximum Humidity 90    
Minimum Humidity 51    
Precipitation  
Precipitation 0.01 in - - ()
Sea Level Pressure  
Sea Level Pressure 30.03 in    
Wind  
Wind Speed 6 mph (North)    
Max Wind Speed 10 mph    
Max Gust Speed -    
Visibility 10 miles    
Events Rain , Thunderstorm    
Averages and records for this station are not official NWS values.
T = Trace of Precipitation, MM = Missing Value Source: NWS Daily Summary

Daily Weather History Graph

Daily Weather History Graph

Search for Another Location

Airport or City:

Astronomy

Jun. 11, 2019 Rise Set
Actual Time 6:22 AM CDT 8:20 PM CDT
Civil Twilight 5:55 AM CDT 8:47 PM CDT
Nautical Twilight 5:22 AM CDT 9:20 PM CDT
Astronomical Twilight 4:47 AM CDT 9:55 PM CDT
Moon 2:51 PM CDT (6/11) 2:33 AM CDT (6/11)
Length of Visible Light 14h 52m
Length of Day
13h 58m
Waxing Gibbous, 66% of the Moon is Illuminated
Jun 11
Waxing Gibbous
Jun 17
Full
Jun 25
Last Quarter
Jul 2
New
Jul 9
First Quarter

Hourly Weather History & Observations

Time (CDT) Temp. Heat Index Dew Point Humidity Pressure Visibility Wind Dir Wind Speed Gust Speed Precip Events Conditions
12:53 AM 77.0 °F - 71.1 °F 82% 30.09 in 10.0 mi North 6.9 mph - N/A   Clear
1:53 AM 77.0 °F - 71.1 °F 82% 30.09 in 10.0 mi NNW 4.6 mph - N/A   Clear
2:53 AM 75.9 °F - 71.1 °F 85% 30.08 in 10.0 mi NNW 4.6 mph - N/A   Clear
3:53 AM 75.9 °F - 70.0 °F 82% 30.08 in 10.0 mi North 5.8 mph - N/A   Mostly Cloudy
4:53 AM 73.9 °F - 70.0 °F 87% 30.07 in 10.0 mi North 6.9 mph - N/A   Clear
5:53 AM 75.9 °F - 69.1 °F 79% 30.06 in 10.0 mi NE 8.1 mph - N/A   Clear
6:53 AM 75.9 °F - 69.1 °F 79% 30.07 in 10.0 mi NE 6.9 mph - N/A   Clear
7:53 AM 78.1 °F - 68.0 °F 71% 30.09 in 10.0 mi NE 10.4 mph - N/A   Clear
8:53 AM 79.0 °F - 66.0 °F 64% 30.11 in 10.0 mi NNE 10.4 mph - N/A   Mostly Cloudy
9:53 AM 79.0 °F - 66.0 °F 64% 30.10 in 10.0 mi NE 9.2 mph - N/A   Scattered Clouds
10:53 AM 81.0 °F 83.0 °F 66.0 °F 60% 30.09 in 10.0 mi ENE 9.2 mph - N/A   Clear
11:53 AM 82.9 °F 85.4 °F 66.9 °F 58% 30.07 in 10.0 mi ENE 6.9 mph - N/A   Clear
12:53 PM 84.9 °F 88.2 °F 68.0 °F 57% 30.06 in 10.0 mi ESE 6.9 mph - N/A   Overcast
1:53 PM 86.0 °F 89.4 °F 68.0 °F 55% 30.04 in 10.0 mi ENE 5.8 mph - N/A   Clear
2:53 PM 87.1 °F 90.6 °F 68.0 °F 53% 30.01 in 10.0 mi Calm Calm - N/A   Mostly Cloudy
3:53 PM 88.0 °F 91.4 °F 68.0 °F 51% 29.99 in 10.0 mi Calm Calm - N/A   Partly Cloudy
4:53 PM 86.0 °F 90.1 °F 69.1 °F 57% 29.98 in 10.0 mi Calm Calm - N/A   Overcast
5:53 PM 80.1 °F 82.9 °F 69.1 °F 69% 29.98 in 10.0 mi South 4.6 mph - N/A   Overcast
6:12 PM 80.1 °F 82.9 °F 69.1 °F 69% 29.98 in 10.0 mi WSW 4.6 mph - N/A Thunderstorm Overcast
6:50 PM 77.0 °F - 71.6 °F 83% 29.98 in 10.0 mi WSW 3.5 mph - N/A   Overcast
6:53 PM 77.0 °F - 72.0 °F 84% 29.99 in 10.0 mi West 4.6 mph - N/A   Overcast
7:04 PM 77.0 °F - 72.0 °F 84% 29.99 in 10.0 mi West 8.1 mph - N/A Thunderstorm Mostly Cloudy
7:21 PM 75.9 °F - 72.0 °F 87% 29.98 in 10.0 mi WSW 5.8 mph - N/A   Overcast
7:53 PM 75.9 °F - 72.0 °F 87% 29.98 in 9.0 mi WNW 3.5 mph - 0.00 in Rain Light Rain
8:53 PM 75.0 °F - 72.0 °F 90% 29.97 in 8.0 mi Calm Calm - 0.01 in Rain Light Rain
9:53 PM 75.0 °F - 72.0 °F 90% 29.96 in 6.0 mi Calm Calm - 0.00 in Rain Light Rain
10:53 PM 75.0 °F - 72.0 °F 90% 29.98 in 8.0 mi Calm Calm - 0.00 in   Clear
11:53 PM 75.0 °F - 72.0 °F 90% 29.98 in 7.0 mi Calm Calm - 0.00 in   Clear